FW6553 Weather Reports


time (UTC)temp
C
wind
direction
speed
KPH
gust
KPH
rain 1hr
cm
rain 24hr
cm
rain mn
cm
humidity
%
barometer
mb
20200531081739 10 195 3.2 24.1 0.00 0.00 0.00 75 1013.9
20200531080740 10 191 4.8 17.7 0.00 0.00 0.00 75 1013.9
20200531075740 10 195 3.2 25.7 0.00 0.00 0.00 76 1013.8
20200531074741 10 189 8.0 16.1 0.00 0.00 0.00 76 1013.5
20200531073740 10 197 6.4 17.7 0.00 0.00 0.00 75 1013.4
20200531072740 10 238 0.0 17.7 0.00 0.00 0.00 76 1013.6
20200531071740 10 225 1.6 11.3 0.00 0.00 0.00 76 1013.5
20200531070740 10 161 3.2 20.9 0.00 0.00 0.00 76 1013.6
20200531065740 10 197 9.7 14.5 0.00 0.00 0.20 76 1013.6
20200531064740 10 169 1.6 14.5 0.00 0.00 0.20 76 1013.7
20200531063740 10 199 3.2 19.3 0.00 0.00 0.20 76 1013.6
20200531062740 10 224 6.4 16.1 0.00 0.00 0.20 76 1013.8
20200531061740 10 187 4.8 8.0 0.00 0.00 0.20 76 1013.8
20200531060740 10 51 0.0 16.1 0.00 0.00 0.20 76 1013.6
20200531055740 10 278 6.4 29.0 0.00 0.00 0.20 75 1013.9
20200531054740 10 190 3.2 17.7 0.00 0.00 0.20 76 1013.8
20200531053740 10 137 0.0 19.3 0.00 0.00 0.20 76 1013.6
20200531052740 10 169 0.0 14.5 0.00 0.00 0.20 76 1013.8
20200531051740 10 222 8.0 12.9 0.00 0.00 0.20 76 1013.7
20200531050740 10 214 3.2 8.0 0.00 0.00 0.20 77 1013.7
20200531045740 10 117 0.0 9.7 0.00 0.00 0.20 77 1013.7
20200531044740 10 84 0.0 16.1 0.00 0.00 0.20 77 1013.5
20200531043740 10 201 14.5 16.1 0.00 0.00 0.20 77 1013.5
20200531042740 10 210 1.6 11.3 0.00 0.00 0.20 75 1013.5
20200531041740 10 89 0.0 14.5 0.00 0.00 0.20 76 1013.3
20200531040742 10 253 3.2 12.9 0.00 0.00 0.20 75 1013.5
20200531035741 10 195 4.8 32.2 0.00 0.00 0.20 75 1013.3
20200531034740 10 207 0.0 33.8 0.00 0.00 0.20 75 1013.5
20200531033740 10 3 6.4 30.6 0.00 0.00 0.20 73 1013.2
20200531032741 10 165 6.4 16.1 0.00 0.00 0.20 73 1012.8
20200531031741 11 300 1.6 17.7 0.00 0.00 0.20 70 1012.5
20200531025741 11 33 4.8 9.7 0.00 0.00 0.20 75 1012.5
20200531024740 11 65 9.7 12.9 0.00 0.00 0.20 76 1012.4
20200531023740 11 186 6.4 17.7 0.00 0.00 0.20 76 1012.6
20200531022740 11 141 8.0 20.9 0.00 0.00 0.20 76 1013.0
20200531021740 10 51 1.6 22.5 0.00 0.00 0.20 77 1012.2
20200531020741 10 184 1.6 20.9 0.00 0.00 0.20 79 1012.3
20200531015740 10 135 1.6 20.9 0.00 0.00 0.20 77 1012.4
20200531014740 10 354 0.0 19.3 0.00 0.00 0.20 77 1012.4
20200531013740 11 218 25.7 33.8 0.00 0.00 0.20 75 1012.3
20200531012740 11 236 1.6 20.9 0.00 0.00 0.20 75 1012.0
20200531011740 11 197 0.0 12.9 0.00 0.00 0.20 78 1012.1
20200531010740 10 194 4.8 11.3 0.00 0.00 0.20 79 1011.5
20200531005740 11 198 4.8 14.5 0.00 0.00 0.20 81 1011.4
20200531004740 11 18 11.3 12.9 0.00 0.00 0.20 81 1011.1
20200531003743 11 359 3.2 12.9 0.00 0.00 0.20 82 1011.0
20200531002758 11 253 11.3 24.1 0.00 0.00 0.20 82 1011.2
20200531001750 11 272 3.2 32.2 0.00 0.00 0.20 81 1011.3
20200531000749 11 124 1.6 24.1 0.00 0.00 0.20 79 1011.0
20200530235743 11 44 0.0 20.9 0.00 0.00 0.20 81 1010.5
20200530234743 11 91 1.6 22.5 0.00 0.00 0.20 82 1010.2
20200530233744 11 30 8.0 29.0 0.00 0.00 0.20 83 1009.7
20200530232740 11 51 3.2 14.5 0.00 0.00 0.18 85 1010.9
20200530231741 11 333 1.6 19.3 0.00 0.00 0.18 87 1008.7
20200530230740 11 52 6.4 20.9 0.00 0.00 0.18 85 1008.7
20200530225740 11 180 11.3 38.6 0.00 0.00 0.15 82 1008.5
20200530224741 12 218 1.6 46.7 0.00 0.00 0.05 78 1010.6
20200530223740 12 167 22.5 38.6 0.00 0.00 0.00 75 1010.0
20200530222740 12 161 6.4 35.4 0.00 0.00 0.00 72 1009.8
20200530221741 13 29 1.6 20.9 0.00 0.00 0.00 72 1009.9
20200530220741 13 6 3.2 14.5 0.00 0.00 0.00 72 1009.0
20200530215741 13 86 6.4 22.5 0.00 0.00 0.00 73 1008.2
20200530214741 13 113 1.6 19.3 0.00 0.00 0.00 70 1008.0
20200530213740 14 208 11.3 16.1 0.00 0.00 0.00 69 1007.8
20200530212741 15 58 3.2 17.7 0.00 0.00 0.00 69 1007.5
20200530211741 15 64 1.6 20.9 0.00 0.00 0.00 66 1007.3
20200530210741 15 244 6.4 20.9 0.00 0.00 0.00 65 1007.5
20200530205741 16 124 3.2 27.4 0.00 0.00 0.00 65 1007.1
20200530204741 16 158 14.5 33.8 0.00 0.00 0.00 63 1007.1
20200530203741 17 208 3.2 38.6 0.00 0.00 0.00 64 1006.8
20200530202741 17 231 14.5 20.9 0.00 0.00 0.00 61 1007.0
20200530201741 18 314 1.6 19.3 0.00 0.00 0.00 62 1006.7
20200530200741 19 104 4.8 19.3 0.00 0.00 0.00 59 1006.0
20200530195741 20 235 8.0 14.5 0.00 0.00 0.00 60 1005.9
20200530194740 20 250 6.4 27.4 0.00 0.00 0.00 60 1005.6
20200530193741 21 67 1.6 24.1 0.00 0.00 0.00 58 1005.3
20200530192741 22 226 6.4 24.1 0.00 0.00 0.00 55 1005.3
20200530191741 24 267 9.7 17.7 0.00 0.00 0.00 54 1005.2
20200530190740 25 86 8.0 12.9 0.00 0.00 0.00 53 1005.1
20200530185741 25 111 0.0 16.1 0.00 0.00 0.00 56 1004.8
20200530184741 25 267 3.2 9.7 0.00 0.00 0.00 57 1004.7
20200530183746 25 60 0.0 6.4 0.00 0.00 0.00 58 1004.7
20200530182741 23 204 0.0 6.4 0.00 0.00 0.00 62 1004.7
20200530181741 23 156 0.0 4.8 0.00 0.00 0.00 61 1004.8
20200530180741 23 148 0.0 6.4 0.00 0.00 0.00 66 1004.9
20200530175741 22 136 0.0 4.8 0.00 0.00 0.00 66 1005.0
20200530174741 21 155 0.0 6.4 0.00 0.00 0.00 69 1005.2
20200530173741 21 136 3.2 4.8 0.00 0.00 0.00 70 1005.4
20200530172741 21 143 0.0 3.2 0.00 0.00 0.00 70 1005.6
20200530171741 21 99 0.0 3.2 0.00 0.00 0.00 69 1005.7
20200530170741 21 8 0.0 1.6 0.00 0.00 0.00 70 1005.9
20200530165741 20 49 0.0 6.4 0.00 0.00 0.00 67 1006.1
20200530164741 21 27 6.4 4.8 0.00 0.00 0.00 70 1006.4
20200530163741 20 39 0.0 1.6 0.00 0.00 0.00 69 1006.6
20200530162741 20 34 0.0 4.8 0.00 0.00 0.00 68 1006.5
20200530161741 20 29 0.0 4.8 0.00 0.00 0.00 68 1006.7
20200530160741 20 76 3.2 4.8 0.00 0.00 0.00 70 1007.0
20200530155741 20 27 0.0 6.4 0.00 0.00 0.00 70 1007.0
20200530154741 19 79 0.0 1.6 0.00 0.00 0.00 73 1007.3
20200530153741 18 113 0.0 4.8 0.00 0.00 0.00 73 1007.5
20200530152741 18 141 1.6 6.4 0.00 0.00 0.00 72 1007.4
20200530151741 18 115 3.2 6.4 0.00 0.00 0.00 73 1007.2
20200530150741 18 116 0.0 3.2 0.00 0.00 0.00 75 1007.4
20200530145741 18 23 0.0 4.8 0.00 0.00 0.00 78 1007.3
20200530144741 18 214 0.0 8.0 0.00 0.00 0.00 78 1007.3
20200530143741 18 4 0.0 9.7 0.00 0.00 0.00 71 1007.7
20200530142741 18 221 0.0 6.4 0.00 0.00 0.00 70 1007.8
20200530141741 17 122 6.4 8.0 0.00 0.00 0.00 74 1007.9
20200530140741 17 6 4.8 20.9 0.00 0.00 0.00 76 1008.1
20200530135741 16 277 0.0 8.0 0.00 0.00 0.00 86 1008.4
20200530134741 16 20 1.6 4.8 0.00 0.00 0.00 86 1008.0
20200530133741 16 222 0.0 1.6 0.00 0.00 0.00 87 1007.6
20200530132741 15 220 0.0 3.2 0.00 0.00 0.00 87 1007.1
20200530131741 15 212 0.0 3.2 0.00 0.00 0.00 88 1007.0
20200530130741 15 161 1.6 3.2 0.00 0.00 0.00 89 1007.0
20200530125741 15 236 0.0 1.6 0.00 0.00 0.00 89 1007.2
20200530124741 15 124 0.0 1.6 0.00 0.00 0.00 89 1007.3
20200530123741 15 18 0.0 0.0 0.00 0.00 0.00 88 1007.4
20200530122741 15 18 0.0 1.6 0.00 0.00 0.00 88 1007.5
20200530121741 15 18 0.0 0.0 0.00 0.00 0.00 88 1007.4
20200530120741 15 135 0.0 1.6 0.00 0.00 0.00 88 1007.5
20200530115741 15 188 1.6 1.6 0.00 0.00 0.00 87 1007.6
20200530114741 15 212 0.0 3.2 0.00 0.00 0.00 88 1007.7
20200530113741 15 158 1.6 4.8 0.00 0.00 0.00 89 1007.7
20200530112741 15 243 0.0 0.0 0.00 0.00 0.00 89 1007.6
20200530111741 15 64 0.0 0.0 0.00 0.00 0.00 87 1007.6
20200530110741 15 163 0.0 0.0 0.00 0.00 0.00 89 1007.7
20200530105741 15 208 0.0 1.6 0.00 0.00 0.00 88 1007.4
20200530104741 15 240 1.6 1.6 0.00 0.00 0.00 89 1007.3
20200530103741 15 139 0.0 1.6 0.00 0.00 0.00 88 1007.6
20200530102741 15 16 0.0 4.8 0.00 0.00 0.00 88 1007.6
20200530101741 15 191 0.0 1.6 0.00 0.00 0.00 87 1007.5
20200530100741 15 191 0.0 6.4 0.00 0.00 0.00 88 1007.8
20200530095741 15 153 0.0 1.6 0.00 0.00 0.00 87 1007.6
20200530094741 15 211 0.0 1.6 0.00 0.00 0.00 87 1007.8
20200530093741 15 46 0.0 1.6 0.00 0.00 0.00 86 1007.8
20200530092741 15 46 1.6 4.8 0.00 0.00 0.00 86 1008.2
20200530090741 16 146 1.6 3.2 0.00 0.00 0.00 84 1008.2
20200530085742 16 214 0.0 3.2 0.00 0.00 0.00 83 1008.5
20200530084741 16 205 3.2 3.2 0.00 0.00 0.00 84 1008.8
20200530083741 16 165 0.0 1.6 0.00 0.00 0.00 84 1008.8
20200530082741 16 123 0.0 1.6 0.00 0.00 0.00 84 1008.9